Content
SEND FEEDBACK

Daily
Averages
Monthly
Summary
United States of America

DOVER, TENNESSEE


Home > North America > United States > Tennessee
Elevation: 420 feet     Latitude: 36 29N     Longitude: 087 51W

WEATHER
 
SELECT A DAY
Number of Records: 129,875;   Date Range: 4/10/01 - 7/7/14
 
SHARE

PRINT THIS DATA

[ ← Previous Day ]
WEATHER ALMANAC - JANUARY 31, 2013
[ Next Day → ]
[ °C ]   °F
Weather ElementAverageHighLow
Temperature35.1 °F43 °F (1:52 pm)25 °F (11:52 pm)
Dewpoint24 °F33.8 °F (8:15 pm)18 °F (4:52 am)
Humidity66.2 %93 % (8:15 pm)43 % (2:52 pm)
Barometer30.08 in30.28 in (11:52 pm)29.95 in (1:52 am)
Wind Speed15.1 mph25.3 mph (10:22 pm)
Wind Gust33.4 mph (10:22 pm)
Weather ElementAverage
Visibility8.4 mi
Wind DirectionWNW (281.4 °)

Weather ElementTotal
Precipitation0.07 in
Heating Degree Days31 (Base 65)
Averaged from 29 records on January 31, 2013
WEATHER CONDITIONS BREAKOUT
WIND DIRECTION BREAKOUT
WEATHER BY HOUR - JANUARY 31, 2013
[ °C ]   °F
Local TimeTemperatureDewpointHumidityBarometerVisibilityWind DirectionWind SpeedGust SpeedPrecipitationEventsConditions
1:52 AM33.1 °F21.0 °F61 %29.95 in10.0 miWest (280°)10.4 mph21.9 mphOvercast
2:52 AM33.1 °F21.0 °F61 %29.95 in10.0 miWest (270°)15.0 mphOvercast
3:52 AM33.1 °F19.9 °F59 %29.97 in10.0 miWest (270°)12.7 mphOvercast
4:52 AM30.9 °F18.0 °F59 %29.99 in10.0 miWest (280°)15.0 mph25.3 mphOvercast
5:52 AM30.9 °F19.0 °F61 %30.01 in10.0 miWest (280°)10.4 mphOvercast
6:52 AM30.9 °F19.9 °F64 %30.04 in10.0 miWest (270°)9.2 mphOvercast
7:52 AM32.0 °F19.9 °F61 %30.06 in10.0 miWSW (240°)9.2 mphMostly Cloudy
9:52 AM35.1 °F21.0 °F57 %30.10 in10.0 miWSW (250°)12.7 mph20.7 mphClear
10:52 AM37.9 °F21.0 °F51 %30.11 in10.0 miWest (270°)16.1 mph23.0 mphPartly Cloudy
11:52 AM39.0 °F21.9 °F50 %30.09 in10.0 miWSW (250°)11.5 mph18.4 mphPartly Cloudy
12:52 PM41.0 °F21.0 °F45 %30.06 in10.0 miWNW (290°)15.0 mph23.0 mphClear
1:52 PM43.0 °F23.0 °F45 %30.04 in10.0 miWest (270°)11.5 mph20.7 mphClear
2:52 PM43.0 °F21.9 °F43 %30.03 in10.0 miSW (230°)12.7 mph23.0 mphClear
3:52 PM43.0 °F23.0 °F45 %30.03 in10.0 miWSW (250°)12.7 mphOvercast
4:52 PM43.0 °F23.0 °F45 %30.04 in10.0 miWSW (250°)12.7 mphOvercast
5:52 PM42.1 °F24.1 °F49 %30.04 in10.0 miWSW (250°)8.1 mphOvercast
6:52 PM43.0 °F26.1 °F51 %30.05 in10.0 miWSW (250°)9.2 mphOvercast
7:52 PM39.0 °F32.0 °F76 %30.08 in10.0 miWNW (290°)21.9 mph27.6 mph0.00 inRainLight Rain
8:15 PM35.6 °F33.8 °F93 %30.09 in6.0 miWNW (290°)19.6 mph27.6 mph0.02 inRainLight Rain
8:26 PM33.8 °F32.0 °F93 %30.10 in2.5 miWNW (300°)19.6 mph28.8 mph0.02 inSnowLight Snow
8:52 PM33.1 °F30.9 °F92 %30.14 in0.8 miWNW (300°)13.8 mph23.0 mph0.03 inSnowLight Snow
9:11 PM33.8 °F30.2 °F87 %30.13 in1.2 miNW (310°)16.1 mph29.9 mph0.00 inSnowLight Snow
9:19 PM32.0 °F30.2 °F93 %30.14 in1.8 miWNW (300°)15.0 mph0.00 inSnowLight Snow
9:28 PM32.0 °F30.2 °F93 %30.14 in2.5 miNW (310°)17.3 mph24.2 mph0.00 inSnowLight Snow
9:36 PM32.0 °F26.6 °F80 %30.14 in8.0 miNW (320°)21.9 mph29.9 mph0.00 inSnowLight Snow
9:52 PM32.0 °F25.0 °F75 %30.16 in10.0 miNW (310°)23.0 mph28.8 mph0.00 inOvercast
10:22 PM28.4 °F23.0 °F80 %30.19 in10.0 miNNW (340°)25.3 mph33.4 mphOvercast
10:52 PM27.0 °F19.9 °F75 %30.23 in10.0 miNNW (330°)23.0 mph32.2 mphOvercast
11:52 PM25.0 °F18.0 °F75 %30.28 in10.0 miNW (310°)16.1 mphScattered Clouds
Hourly data recorded from KCKV, located miles away from Dover, Tennessee







STORIES FROM OUR PARTNERS